EW3547 Weather Reports


time (UTC)temp
F
wind
direction
speed
knots
gust
knots
rain 1hr
in
rain 24hr
in
rain mn
in
humidity
%
barometer
mb
20260506061514 43 330 0.0 2.6 0.00 0.00 0.00 71 1011.8
20260506044508 50 307 0.0 1.7 0.00 0.00 0.00 58 1011.0
20260506043005 51 307 0.0 1.7 0.00 0.00 0.00 56 1010.7
20260506041504 53 271 0.0 1.7 0.00 0.00 0.00 53 1010.5
20260506040002 55 271 1.7 4.3 0.00 0.00 0.00 50 1010.4
20260506034615 56 124 0.0 1.7 0.00 0.00 0.00 47 1010.1
20260506033058 57 270 0.0 2.6 0.00 0.00 0.00 45 1009.7
20260506031607 58 342 0.0 0.9 0.00 0.00 0.00 43 1009.5
20260506030056 60 342 0.0 5.2 0.00 0.00 0.00 41 1009.4
20260506024613 60 100 0.9 4.3 0.00 0.00 0.00 40 1009.2
20260506023053 61 149 0.0 4.3 0.00 0.00 0.00 39 1009.0
20260506021553 62 304 1.7 3.5 0.00 0.00 0.00 40 1009.0
20260506020051 62 173 1.7 5.2 0.00 0.00 0.00 38 1008.9
20260506014551 63 146 1.7 7.0 0.00 0.00 0.00 36 1008.8
20260506013102 64 181 0.9 4.3 0.00 0.00 0.00 37 1008.5
20260506011603 66 61 0.9 5.2 0.00 0.00 0.00 34 1008.4
20260506010050 67 4 1.7 6.1 0.00 0.00 0.00 32 1008.4
20260506004546 67 70 2.6 5.2 0.00 0.00 0.00 34 1008.3
20260506003046 67 96 0.9 4.3 0.00 0.00 0.00 34 1008.2
20260506001546 67 50 3.5 6.1 0.00 0.00 0.00 34 1008.1
20260506000047 67 349 1.7 7.0 0.00 0.00 0.00 35 1008.0
20260505234544 66 24 0.9 5.2 0.00 0.00 0.00 37 1008.0
20260505233044 67 18 1.7 7.8 0.00 0.00 0.00 37 1007.9
20260505231544 69 104 0.9 5.2 0.00 0.00 0.00 35 1007.7
20260505230055 68 43 0.9 6.1 0.00 0.00 0.00 36 1007.7
20260505224546 68 52 2.6 7.8 0.00 0.00 0.00 37 1007.7
20260505223055 66 178 0.9 5.2 0.00 0.00 0.00 38 1007.5
20260505221542 67 50 1.7 5.2 0.00 0.00 0.00 37 1007.6
20260505220044 70 282 1.7 5.2 0.00 0.00 0.00 34 1007.6
20260505214541 72 247 1.7 6.1 0.00 0.00 0.00 32 1007.6
20260505213051 71 70 3.5 8.7 0.00 0.00 0.00 36 1007.6
20260505211536 70 79 4.3 7.8 0.00 0.00 0.00 35 1007.9
20260505210034 70 29 2.6 8.7 0.00 0.00 0.00 35 1007.9
20260505204532 70 75 3.5 7.8 0.00 0.00 0.00 33 1007.8
20260505203042 69 57 2.6 10.4 0.00 0.00 0.00 33 1007.7
20260505201528 69 189 2.6 10.4 0.00 0.00 0.00 33 1007.6
20260505200034 69 61 3.5 7.8 0.00 0.00 0.00 35 1007.9
20260505194525 69 49 1.7 7.0 0.00 0.00 0.00 37 1007.9
20260505193023 68 103 1.7 8.7 0.00 0.00 0.00 41 1008.0
20260505191521 68 87 2.6 5.2 0.00 0.00 0.00 41 1008.1
20260505190020 67 354 2.6 8.7 0.00 0.00 0.00 43 1008.1
20260505184522 66 285 1.7 12.2 0.00 0.00 0.00 44 1008.1
20260505183014 66 72 2.6 7.8 0.00 0.00 0.00 46 1008.1
20260505181513 66 64 2.6 7.0 0.00 0.00 0.00 46 1008.2
20260505180010 65 105 1.7 4.3 0.00 0.00 0.00 47 1008.1
20260505174506 64 310 2.6 4.3 0.00 0.00 0.00 47 1008.0
20260505173012 63 301 1.7 7.0 0.00 0.00 0.00 50 1008.0
20260505171601 62 347 1.7 4.3 0.00 0.00 0.00 51 1007.8
20260505170058 61 225 0.9 5.2 0.00 0.00 0.00 52 1007.8
20260505164602 61 331 0.9 5.2 0.00 0.00 0.00 55 1007.8
20260505163056 59 37 1.7 7.8 0.00 0.00 0.00 56 1007.8
20260505161550 59 229 0.9 3.5 0.00 0.00 0.00 60 1007.8
20260505153050 54 252 1.7 5.2 0.00 0.00 0.00 74 1007.9
20260505151541 51 45 0.9 1.7 0.00 0.00 0.00 79 1007.8
20260505124508 38 66 0.9 2.6 0.00 0.00 0.00 86 1007.0
20260505123005 38 66 0.0 0.0 0.00 0.00 0.00 86 1006.8
20260505121504 38 66 0.0 1.7 0.00 0.00 0.00 86 1006.7
20260505120003 38 66 0.9 2.6 0.00 0.00 0.00 85 1006.5
20260505114602 39 66 2.6 3.5 0.00 0.00 0.00 84 1006.5
20260505113102 39 77 0.0 2.6 0.00 0.00 0.00 82 1006.4
20260505111559 40 77 0.0 1.7 0.00 0.00 0.00 82 1006.3
20260505110105 40 77 0.0 1.7 0.00 0.00 0.00 82 1006.3
20260505101554 39 77 0.0 1.7 0.00 0.00 0.00 80 1006.4
20260505100054 39 77 0.0 0.9 0.00 0.00 0.00 79 1006.4
20260505094551 39 77 0.0 2.6 0.00 0.00 0.00 78 1006.2
20260505093047 39 77 0.9 1.7 0.00 0.00 0.00 77 1006.3
20260505091555 39 77 0.0 3.5 0.00 0.00 0.00 75 1006.2
20260505090053 40 197 0.0 0.9 0.00 0.00 0.00 74 1006.2
20260505084539 41 197 0.9 1.7 0.00 0.00 0.00 73 1006.1
20260505083042 42 197 0.0 0.9 0.00 0.00 0.00 72 1006.2
20260505081550 42 197 0.9 1.7 0.00 0.00 0.00 71 1006.4
20260505080040 43 197 0.0 2.6 0.00 0.00 0.00 69 1006.5
20260505074525 44 198 0.9 1.7 0.00 0.00 0.00 67 1006.6
20260505073022 45 198 0.0 1.7 0.00 0.00 0.00 66 1006.7
20260505071527 46 199 0.0 1.7 0.00 0.00 0.00 65 1006.6